[Iaude] MPEC B33: 2024 BK [a=1.68,e=0.58,i=1.8,H=24.7]

mpec at marsden.cfa.harvard.edu mpec at marsden.cfa.harvard.edu
Thu Jan 18 13:24:04 EST 2024


M.P.E.C. 2024-B33                              Issued 2024 January 18, 18:10 UT

     The Minor Planet Electronic Circulars contain information on unusual
         minor planets, routine data on comets and natural satellites,
         and occasional editorial announcements.  They are published
    on behalf of Division F of the International Astronomical Union by the
          Minor Planet Center, Smithsonian Astrophysical Observatory,
                          Cambridge, MA 02138, U.S.A.
			  
             Prepared using the Tamkin Foundation Computer Network

                              MPC at CFA.HARVARD.EDU
            URL https://www.minorplanetcenter.net/    ISSN 1523-6714

                                    2024 BK                                     


Observations:
     K24B00K*1C2024 01 17.32243508 58 23.466-20 37 46.85         18.39GVEB033G96
     K24B00K 1C2024 01 17.32767708 58 19.132-20 34 25.18               VEB033G96
     K24B00K 1C2024 01 17.33292608 58 14.776-20 31 03.47         18.48GVEB033G96
     K24B00K 1C2024 01 17.33818008 58 10.441-20 27 41.65         18.44GVEB033G96
     K24B00K 1C2024 01 17.34148708 58 07.662-20 25 34.21         19.03GVEB033703
     K24B00K 1C2024 01 17.34381908 58 05.765-20 24 05.76         18.45GVEB033703
     K24B00K 1C2024 01 17.34614808 58 03.853-20 22 36.37         18.45GVEB033703
     K24B00K  C2024 01 17.36441408 57 38.32 -20 06 17.0                WEB033X09
     K24B00K  C2024 01 17.36909808 57 34.60 -20 03 16.1                WEB033X09
     K24B00K  C2024 01 17.37201108 57 41.797-20 06 15.64         18.3 GVEB033H01
     K24B00K  C2024 01 17.37558608 57 38.910-20 03 59.71         18.8 GVEB033H01
     K24B00K  C2024 01 17.38562708 57 30.845-19 57 39.24         18.5 GVEB033H01
     K24B00K  C2024 01 17.39267208 57 25.231-19 53 13.80         18.9 GVEB033H01
     K24B00K mC2024 01 17.39789308 57 21.985-19 49 53.69         18.40GVEB033V06
     K24B00K mC2024 01 17.39802908 57 21.848-19 49 48.72         18.46GVEB033V06
     K24B00K mC2024 01 17.39816508 57 21.740-19 49 43.54         18.52GVEB033V06
     K24B00K mC2024 01 17.39830008 57 21.647-19 49 38.53         18.46GVEB033V06
     K24B00K mC2024 01 17.43818208 56 50.381-19 24 47.48         19.03GVEB033V06
     K24B00K mC2024 01 17.43831908 56 50.291-19 24 42.44         19.44GVEB033V06
     K24B00K mC2024 01 17.43845508 56 50.168-19 24 37.48         18.93GVEB033V06
     K24B00K mC2024 01 17.43859008 56 50.086-19 24 32.26         18.95GVEB033V06
     K24B00K KC2024 01 17.95232608 51 53.328-14 38 45.17         18.7 GXEB033L34
     K24B00K KC2024 01 17.96719708 51 46.130-14 31 43.46         18.9 GVEB033J95
     K24B00K KC2024 01 17.96985508 51 44.599-14 30 24.34         18.5 GVEB033J95
     K24B00K KC2024 01 17.97321808 51 42.605-14 28 43.75         18.7 GVEB033J95
     K24B00K 0B2024 01 18.00997 08 51 17.71 -14 06 20.7          19.4 VZEB033M49
     K24B00K 0B2024 01 18.01148 08 51 16.82 -14 05 36.4          19.2 VZEB033M49
     K24B00K 0B2024 01 18.01297 08 51 15.92 -14 04 52.0          19.5 VZEB033M49
     K24B00K KC2024 01 18.04946408 50 55.066-13 50 46.97         18.4 GXEB033L34
     K24B00K |C2024 01 18.13722008 50 23.310-13 04 40.90         18.7 GVEB033807
     K24B00K |C2024 01 18.14038008 50 21.530-13 03 12.60         18.8 GVEB033807
     K24B00K |C2024 01 18.14340008 50 19.850-13 01 48.60         18.9 GVEB033807
     K24B00K KC2024 01 18.56012 08 47 11.23 -10 01 36.0          19.1 VqEB033E23
     K24B00K KC2024 01 18.57400 08 47 04.48 -09 56 04.0          19.5 VqEB033E23
     K24B00K KC2024 01 18.58789 08 46 57.90 -09 50 33.8          19.1 VqEB033E23

Observer details:
703 Catalina Sky Survey.  Observers T. Beuden, D. Rankin.  Measurers T.
    Beuden, V. F. Carvajal, D. Fay, J. B. Fazekas, D. C. Fuls, A. R. Gibbs, A.
    D. Grauer, H. Groeller, J. K. Hogan, R. A. Kowalski, S. M. Larson, G. J.
    Leonard, D. Rankin, R. L. Seaman, F. C. Shelly, K. W. Wierzchos.  0.68-m
    Schmidt + 10K CCD.
807 Cerro Tololo Observatory, La Serena.  Observers T. Linder, R. Holmes.
    0.61-m f/11 Ritchey-Chretien + CCD.
E23 Arcadia.  Observer A. Hidas.  0.35-m f/1.9 reflector + CCD.
G96 Mt. Lemmon Survey.  Observer J. K. Hogan.  Measurers T. Beuden, V. F.
    Carvajal, D. Fay, J. B. Fazekas, D. C. Fuls, A. R. Gibbs, A. D. Grauer, H.
    Groeller, J. K. Hogan, R. A. Kowalski, S. M. Larson, G. J. Leonard, D.
    Rankin, R. L. Seaman, F. C. Shelly, K. W. Wierzchos.  1.5-m reflector +
    10K CCD.
H01 Magdalena Ridge Observatory, Socorro.  Observers W. H. Ryan, E. V. Ryan.
    Measurer W. H. Ryan.  2.4-m f/8.9 Ritchey-Chretien + CCD.
J95 Great Shefford.  Observer P. Birtwhistle.  0.41-m f/6.3 Schmidt-Cassegrain
    + CCD.
L34 Galhassin Robotic Telescope, Isnello.  Observer A. Nastasi.  0.40-m f/3.8
    400mm Reflector + CCD.
M49 IAS Remote Observatory, Hakos.  Observers D. Husar, M. Junius.  Measurer
    D. Husar.  0.25-m f/4.5 reflector + CMO.
V06 Catalina Sky Survey-Kuiper.  Observer G. J. Leonard.  Measurers T. Beuden,
    V. F. Carvajal, D. Fay, J. B. Fazekas, D. C. Fuls, A. R. Gibbs, A. D.
    Grauer, H. Groeller, J. K. Hogan, R. A. Kowalski, S. M. Larson, G. J.
    Leonard, D. Rankin, R. L. Seaman, F. C. Shelly, K. W. Wierzchos.  1.55-m
    reflector + 1K CCD.
X09 Deep Random Survey, Rio Hurtado.  Observers A. Schnabel, D. Ruhela.
    Measurer S. Deen.  0.43-m reflector + CMOS.

Orbital elements:
2024 BK                                                  Earth MOID = 0.0076 AU
Epoch 2023 Sept. 13.0 TT = JDT 2460200.5                Veres                   
M 325.05363              (2000.0)            P               Q                  
n   0.45242168     Peri.  245.82222     +0.78272985     -0.62218604             
a   1.6805075      Node   152.64660     +0.58204497     +0.72340826             
e   0.5764949      Incl.    1.84363     +0.22035797     +0.29927416             
P   2.18           H   24.74          G   0.15           U   7                  
Residuals in seconds of arc
240117 G96  0.0   0.1+    240117 H01  0.1+  0.2-    240117 J95  0.5-  0.1+
240117 G96  0.2+  0.1-    240117 V06  0.4+  0.1-    240118 M49  0.1-  0.2-
240117 G96  0.0   0.1-    240117 V06  0.0   0.2-    240118 M49  0.4+  0.5-
240117 G96  0.0   0.2+    240117 V06  0.0   0.1-    240118 M49  0.5+  0.0
240117 703  0.5-  0.8+    240117 V06  0.2+  0.2-    240118 L34  0.4+  0.7+
240117 703  0.2-  0.0     240117 V06  0.0   0.1-    240118 807  0.1+  0.1-
240117 703  0.2-  0.3+    240117 V06  0.2+  0.1-    240118 807  0.1-  0.1+
240117 X09  0.2+  1.7-    240117 V06  0.1-  0.2-    240118 807  0.0   0.0
240117 X09  0.5-  0.0     240117 V06  0.2+  0.0     240118 E23  0.8+  0.8-
240117 H01  0.1+  0.2-    240117 L34  0.6+  0.9-    240118 E23  0.6-  0.2+
240117 H01  0.0   0.1+    240117 J95  0.4-  0.1+    240118 E23  0.3+  0.5+
240117 H01  0.1-  0.4+    240117 J95  0.1-  0.2-

Ephemeris:
2024 BK                  a,e,i = 1.68, 0.58, 2                   q = 0.7117
Date    TT    R. A. (2000) Decl.     Delta      r    Elong.  Phase     V
2023 12 19    19 58 06.4 -26 08 35   0.2571  0.7731    30.3   140.0    28.1
...
2024 01 03    19 59 07.7 -32 49 03   0.1083  0.8809    18.0   159.9    30.6
...
2024 01 11    19 18 59.3 -53 32 21   0.03997 0.9496    31.6   147.1    25.6
...
2024 01 17    09 02 36.9 -24 15 51   0.02997 1.0039   131.6    47.1    18.9
2024 01 18    08 51 24.3 -14 12 16   0.03660 1.0131   142.5    36.2    19.1
2024 01 19    08 44 22.6 -07 20 45   0.04406 1.0223   150.1    28.7    19.3
...
2024 01 25    08 28 12.2 +08 55 41   0.09508 1.0780   169.7     9.4    20.4
...
2024 02 02    08 22 32.1 +14 44 13   0.1693  1.1529   170.9     7.7    21.7
...
2024 02 17    08 22 24.6 +18 01 51   0.3248  1.2917   156.1    18.0    23.8

M. P. C. Staff               (C) Copyright 2024 MPC           M.P.E.C. 2024-B33





More information about the Iaude mailing list